French Village, MO

3:03 PM CDT on September 28, 2016 (GMT -0500)
Farmington Regional

Weather History for KFAM - December, 2013

Change the Weather History Date:

Wednesday, December 4, 2013

  Actual Average Record
Temperature  
Mean Temperature 55 °F -  
Max Temperature 64 °F 46 °F 71 °F (2001)
Min Temperature 44 °F 31 °F 19 °F (1996)
Degree Days  
Heating Degree Days 10    
Growing Degree Days 5 (Base 50)    
Moisture  
Dew Point 51 °F    
Average Humidity 84    
Maximum Humidity 100    
Minimum Humidity 67    
Precipitation  
Precipitation 0.00 in - - ()
Sea Level Pressure  
Sea Level Pressure 29.69 in    
Wind  
Wind Speed 10 mph (SSW)    
Max Wind Speed 22 mph    
Max Gust Speed 29 mph    
Visibility 7 miles    
Events      
Averages and records for this station are not official NWS values.
T = Trace of Precipitation, MM = Missing Value Source: NWS Daily Summary

Daily Weather History Graph

Daily Weather History Graph

Search for Another Location

Airport or City:

Trip Planner

Search our weather history database for the weather conditions in past years. The results will help you decide how hot, cold, wet, or windy it might be!

Date:

Astronomy

Dec. 04, 2013 Rise Set
Actual Time 7:01 AM CST 4:42 PM CST
Civil Twilight 6:32 AM CST 5:11 PM CST
Nautical Twilight 5:59 AM CST 5:44 PM CST
Astronomical Twilight 5:27 AM CST 6:16 PM CST
Moon 8:30 AM CST (12/4) 6:52 PM CST (12/4)
Length of Visible Light 10h 39m
Length of Day
9h 41m
Waxing Crescent, 4% of the Moon is Illuminated
Dec 4
Waxing Crescent
Dec 9
First Quarter
Dec 17
Full
Dec 25
Last Quarter
Jan 1
New

Hourly Weather History & Observations

Time (CST) Temp. Windchill Dew Point Humidity Pressure Visibility Wind Dir Wind Speed Gust Speed Precip Events Conditions
12:15 AM 53.6 °F - 51.8 °F 94% 29.70 in 1.8 mi South 10.4 mph - N/A   Overcast
12:35 AM 53.6 °F - 51.8 °F 94% 29.70 in 4.0 mi SSW 10.4 mph - N/A   Overcast
12:55 AM 53.6 °F - 51.8 °F 94% 29.70 in 5.0 mi South 10.4 mph - N/A   Overcast
1:15 AM 53.6 °F - 51.8 °F 94% 29.69 in 3.0 mi South 6.9 mph - N/A   Overcast
1:35 AM 53.6 °F - 51.8 °F 94% 29.68 in 2.0 mi South 6.9 mph - N/A   Overcast
1:55 AM 53.6 °F - 51.8 °F 94% 29.68 in 0.5 mi South 4.6 mph - N/A   Overcast
2:15 AM 53.6 °F - 51.8 °F 94% 29.68 in 0.5 mi South 4.6 mph - N/A   Overcast
2:35 AM 53.6 °F - 51.8 °F 94% 29.68 in 0.2 mi SSE 5.8 mph - N/A   Overcast
2:55 AM 53.6 °F - 51.8 °F 94% 29.67 in 0.2 mi SSE 5.8 mph - N/A   Overcast
3:15 AM 53.6 °F - 51.8 °F 94% 29.67 in 0.5 mi SSE 9.2 mph - N/A   Overcast
3:35 AM 53.6 °F - 51.8 °F 94% 29.67 in 0.8 mi SSE 6.9 mph - N/A   Overcast
3:55 AM 53.6 °F - 51.8 °F 94% 29.66 in 0.5 mi SSE 5.8 mph - N/A   Overcast
4:15 AM 53.6 °F - 51.8 °F 94% 29.66 in 1.2 mi SSE 6.9 mph - N/A   Overcast
4:35 AM 53.6 °F - 53.6 °F 100% 29.66 in 1.5 mi SSE 4.6 mph - N/A   Overcast
4:55 AM 53.6 °F - 51.8 °F 94% 29.66 in 1.0 mi South 3.5 mph - N/A   Overcast
5:15 AM 53.6 °F - 51.8 °F 94% 29.66 in 0.8 mi SE 5.8 mph - N/A   Overcast
5:35 AM 53.6 °F - 51.8 °F 94% 29.67 in 0.8 mi South 5.8 mph - N/A   Overcast
5:55 AM 53.6 °F - 51.8 °F 94% 29.67 in 0.5 mi SSE 5.8 mph - N/A   Overcast
6:15 AM 53.6 °F - 51.8 °F 94% 29.66 in 0.5 mi SSE 4.6 mph - N/A   Overcast
6:35 AM 53.6 °F - 51.8 °F 94% 29.66 in 0.5 mi SSE 3.5 mph - N/A   Overcast
6:55 AM 53.6 °F - 53.6 °F 100% 29.66 in 0.5 mi SSE 6.9 mph - N/A   Overcast
7:15 AM 53.6 °F - 53.6 °F 100% 29.66 in 1.0 mi South 6.9 mph - N/A   Overcast
7:35 AM 53.6 °F - 53.6 °F 100% 29.66 in 0.5 mi South 8.1 mph - N/A   Overcast
7:55 AM 55.4 °F - 53.6 °F 94% 29.67 in 1.5 mi South 9.2 mph - N/A   Overcast
8:15 AM 55.4 °F - 53.6 °F 94% 29.66 in 5.0 mi South 9.2 mph - N/A   Overcast
8:35 AM 55.4 °F - 53.6 °F 94% 29.67 in 7.0 mi South 13.8 mph 18.4 mph N/A   Overcast
8:55 AM 55.4 °F - 53.6 °F 94% 29.67 in 7.0 mi South 15.0 mph 18.4 mph N/A   Overcast
9:15 AM 55.4 °F - 53.6 °F 94% 29.67 in 7.0 mi South 12.7 mph 17.3 mph N/A   Overcast
9:35 AM 55.4 °F - 53.6 °F 94% 29.67 in 8.0 mi South 13.8 mph 20.7 mph N/A   Overcast
9:55 AM 55.4 °F - 53.6 °F 94% 29.67 in 8.0 mi South 17.3 mph - N/A   Overcast
10:15 AM 57.2 °F - 53.6 °F 88% 29.66 in 9.0 mi South 17.3 mph - N/A   Overcast
10:35 AM 57.2 °F - 53.6 °F 88% 29.65 in 9.0 mi South 15.0 mph 23.0 mph N/A   Overcast
10:55 AM 57.2 °F - 53.6 °F 88% 29.65 in 9.0 mi South 17.3 mph 20.7 mph N/A   Overcast
11:15 AM 59.0 °F - 53.6 °F 82% 29.64 in 10.0 mi South 17.3 mph 28.8 mph N/A   Overcast
11:35 AM 60.8 °F - 53.6 °F 77% 29.63 in 9.0 mi South 20.7 mph 27.6 mph N/A   Overcast
11:55 AM 60.8 °F - 53.6 °F 77% 29.64 in 10.0 mi SSW 20.7 mph 26.5 mph N/A   Overcast
12:15 PM 60.8 °F - 53.6 °F 77% 29.62 in 10.0 mi South 18.4 mph 28.8 mph N/A   Overcast
12:35 PM 60.8 °F - 53.6 °F 77% 29.62 in 10.0 mi SSW 17.3 mph 26.5 mph N/A   Overcast
12:55 PM 60.8 °F - 53.6 °F 77% 29.62 in 10.0 mi South 20.7 mph 27.6 mph N/A   Overcast
1:15 PM 62.6 °F - 53.6 °F 72% 29.62 in 10.0 mi South 13.8 mph 23.0 mph N/A   Overcast
1:35 PM 62.6 °F - 53.6 °F 72% 29.60 in 10.0 mi South 17.3 mph 23.0 mph N/A   Mostly Cloudy
1:55 PM 62.6 °F - 53.6 °F 72% 29.59 in 10.0 mi South 18.4 mph 28.8 mph N/A   Mostly Cloudy
2:15 PM 62.6 °F - 53.6 °F 72% 29.59 in 10.0 mi South 17.3 mph 23.0 mph N/A   Mostly Cloudy
2:35 PM 62.6 °F - 55.4 °F 77% 29.59 in 10.0 mi South 21.9 mph 26.5 mph N/A   Mostly Cloudy
2:55 PM 62.6 °F - 55.4 °F 77% 29.60 in 10.0 mi South 15.0 mph 20.7 mph N/A   Mostly Cloudy
3:15 PM 62.6 °F - 55.4 °F 77% 29.62 in 10.0 mi SSW 17.3 mph 24.2 mph N/A   Mostly Cloudy
3:35 PM 64.4 °F - 55.4 °F 73% 29.63 in 10.0 mi SSW 12.7 mph 16.1 mph N/A   Mostly Cloudy
3:55 PM 62.6 °F - 53.6 °F 72% 29.65 in 10.0 mi SW 9.2 mph - N/A   Mostly Cloudy
4:15 PM 62.6 °F - 53.6 °F 72% 29.66 in 10.0 mi SSW 6.9 mph - N/A   Overcast
4:35 PM 62.6 °F - 53.6 °F 72% 29.66 in 10.0 mi SSW 5.8 mph - N/A   Overcast
4:55 PM 60.8 °F - 53.6 °F 77% 29.67 in 10.0 mi SSW 5.8 mph - N/A   Overcast
5:15 PM 60.8 °F - 53.6 °F 77% 29.67 in 10.0 mi SSW 5.8 mph - N/A   Overcast
5:35 PM 59.0 °F - 53.6 °F 82% 29.68 in 10.0 mi South 5.8 mph - N/A   Overcast
5:55 PM 60.8 °F - 53.6 °F 77% 29.69 in 10.0 mi SSW 5.8 mph - N/A   Mostly Cloudy
6:15 PM 59.0 °F - 53.6 °F 82% 29.70 in 10.0 mi SSW 6.9 mph - N/A   Mostly Cloudy
6:35 PM 59.0 °F - 53.6 °F 82% 29.71 in 10.0 mi SSW 9.2 mph - N/A   Scattered Clouds
6:55 PM 60.8 °F - 53.6 °F 77% 29.72 in 10.0 mi SSW 11.5 mph - N/A   Clear
7:15 PM 60.8 °F - 51.8 °F 72% 29.74 in 10.0 mi SW 9.2 mph - N/A   Partly Cloudy
7:35 PM 60.8 °F - 51.8 °F 72% 29.75 in 10.0 mi WNW 8.1 mph - N/A   Scattered Clouds
7:55 PM 57.2 °F - 46.4 °F 67% 29.75 in 10.0 mi WNW 10.4 mph 17.3 mph N/A   Scattered Clouds
8:15 PM 55.4 °F - 44.6 °F 67% 29.77 in 10.0 mi WNW 9.2 mph - N/A   Clear
8:35 PM 53.6 °F - 44.6 °F 72% 29.79 in 10.0 mi WNW 6.9 mph - N/A   Clear
8:55 PM 51.8 °F - 42.8 °F 71% 29.79 in 10.0 mi WNW 6.9 mph - N/A   Clear
9:15 PM 51.8 °F - 42.8 °F 71% 29.81 in 10.0 mi NW 9.2 mph - N/A   Clear
9:35 PM 50.0 °F - 42.8 °F 76% 29.82 in 10.0 mi WNW 10.4 mph 18.4 mph N/A   Clear
9:55 PM 48.2 °F - 41.0 °F 76% 29.83 in 10.0 mi WNW 11.5 mph - N/A   Clear
10:15 PM 48.2 °F - 41.0 °F 76% 29.83 in 10.0 mi WNW 6.9 mph - N/A   Clear
10:35 PM 46.4 °F 42.9 °F 39.2 °F 76% 29.84 in 10.0 mi WNW 6.9 mph - N/A   Clear
10:55 PM 46.4 °F 42.9 °F 39.2 °F 76% 29.85 in 10.0 mi West 6.9 mph - N/A   Clear
11:15 PM 46.4 °F 44.3 °F 39.2 °F 76% 29.85 in 10.0 mi NW 4.6 mph - N/A   Clear
11:35 PM 46.4 °F 43.5 °F 39.2 °F 76% 29.85 in 10.0 mi NW 5.8 mph - N/A   Scattered Clouds
11:55 PM 44.6 °F 39.2 °F 39.2 °F 81% 29.85 in 10.0 mi NW 10.4 mph - N/A   Mostly Cloudy